Погода в Центральном

Россия / Рязанская область     53°40′36″N   39°37′35″E
темп.,
°C
ветер,
м/с
пор.,
м/с
влажн.,
%
обл.,
%
осадки,
мм/ч
давл.,
гПа
погр.,
м
14 мая, пт
пт1400:00+12вюв2286100 0.0 101719
03:00+12вюв338677 0.0 101764
06:00+13юв2290100 0.1 101768
09:00+18юв357712 0.1 1017453
12:00+22юв5767100 0.0 10161072
15:00+22ююв61070100 1.0 10151249
18:00+20юв6148097 1.5 1012577
21:00+17юв41185100 1.6 1011221
15 мая, сб
сб1500:00+15ю229373 1.4 101219
03:00+16в2293100 2.1 101124
06:00+16юв3595100 1.2 1010167
09:00+20ю6884100 1.2 1011508
12:00+22ююз5869100 0.9 10121043
15:00+22ююз68622 1.0 10121424
18:00+20юз497199 0.4 1012384
21:00+16ююз48845 0.4 1013125
16 мая, вс
вс1600:00+14юз35870 0.0 101477
03:00+13ююз34900 0.0 101460
06:00+14ююз24875 0.0 1015109
09:00+19ююз35705 0.0 1015477
12:00+22ю35550 0.0 10151477
15:00+23ююз365388 0.0 10152102
18:00+22ююз236978 0.0 1014246
21:00+17ссв1176100 0.0 101511
17 мая, пн
пн1700:00+15св35876 0.1 101576
03:00+14всв3692100 1.3 1015115
06:00+15всв379347 0.0 1014164
09:00+21вюв577232 0.0 1014423
12:00+25юв675830 0.0 1013783
15:00+26юв585855 0.0 10121023
18:00+23юв5116858 0.0 1011421
21:00+18вюв4148487 0.0 1011281
18 мая, вт
вт1800:00+18юв5177250 0.0 1010368
03:00+16юв5156449 0.0 1009342
06:00+15юв5137284 0.0 1009262
09:00+20ююв7126590 0.0 1009484
12:00+24ююв8126286 0.0 10091130
15:00+24ю6968100 0.6 10091364
18:00+21ю51079100 1.7 1009378
21:00+17ю51291100 2.8 1009322